[[[{"header":{"parameterUnit":"kt","parameterCategory":2,"dx":1,"dy":1,"la1":30.253999710083008,"la2":30.299108505249023,"lo1":-89.0895004272461,"lo2":-89.04439544677734,"nx":28,"ny":28,"refTime":"2022-10-15T21:00:00:Z","depth":0,"parameterNumber":1,"parameterNumberName":"U-component_of_WINDS"},"data":[-3.0981,-3.1084,-3.109,-3.1212,-3.1239,-3.1324,-3.1357,-3.1401,-3.1438,-3.1543,-3.1604,-3.1624,-3.1665,-3.1743,-3.1812,-3.1819,-3.1849,-3.188,-3.1884,-3.1734,-3.1714,-3.1694,-3.1669,-3.1886,-3.1887,-3.2039,-3.2041,-3.2042,-3.087,-3.0897,-3.0963,-3.1031,-3.1089,-3.1062,-3.1115,-3.1166,-3.1244,-3.129,-3.1351,-3.1445,-3.152,-3.1552,-3.1627,-3.1678,-3.1671,-3.1698,-3.1695,-3.1703,-3.1542,-3.1515,-3.1702,-3.1702,-3.1702,-3.1702,-3.1702,-3.1702,-3.0671,-3.0733,-3.0777,-3.0849,-3.0886,-3.0932,-3.0993,-3.1014,-3.108,-3.1157,-3.1153,-3.1243,-3.1292,-3.1386,-3.142,-3.1492,-3.1464,-3.1496,-3.1505,-3.1513,-3.1522,-3.1302,-3.1505,-3.1504,-3.1504,-3.1503,-3.1503,0,-3.0528,-3.0528,-3.0592,-3.0658,-3.0711,-3.0763,-3.0812,-3.085,-3.0857,-3.0912,-3.0992,-3.104,-3.1136,-3.1214,-3.1286,-3.1315,-3.1296,-3.1295,-3.1317,-3.1321,-3.1315,-3.132,-3.1059,-3.1289,-3.1287,-3.1286,-3.1285,-3.1284,-3.0328,-3.0399,-3.0449,-3.0493,-3.0521,-3.0593,-3.0637,-3.0637,-3.0684,-3.0747,-3.0803,-3.088,-3.0942,-3.1072,-3.1098,-3.1171,-3.1163,-3.125,-3.1174,-3.1174,-3.1166,-3.1162,-3.117,-3.1265,-3.1267,-3.1269,-3.1271,0,-3.0216,-3.0225,-3.0338,-3.038,-3.0393,-3.0469,-3.0506,-3.0569,-3.0582,-3.0672,-3.0692,-3.0715,-3.0795,-3.0807,-3.0902,-3.0906,-3.1035,-3.1024,-3.1017,-3.1016,-3.1096,-3.1089,-3.1352,-3.1387,-3.1161,-3.1163,-3.1165,0,-3.0051,-3.0144,-3.0153,-3.0218,-3.0322,-3.0318,-3.0423,-3.0444,-3.0485,-3.0555,-3.0533,-3.06,-3.0604,-3.0673,-3.0679,-3.0786,-3.0804,-3.0814,-3.0815,-3.0817,-3.0815,-3.0843,-3.0833,-3.0812,-3.0811,-3.0809,-3.0808,0,-2.9875,-2.9988,-3.0093,-3.0121,-3.0176,-3.0226,-3.0252,-3.0297,-3.0342,-3.0401,-3.043,-3.0499,-3.0538,-3.0594,-3.0601,-3.0549,-3.0731,-3.0661,-3.0742,-3.0742,-3.0782,-3.078,-3.1009,-3.0807,-3.0806,-3.0806,-3.0805,0,-2.9743,-2.9799,-2.9949,-2.9995,-3.0025,-3.0095,-3.0162,-3.0224,-3.0274,-3.0281,-3.0328,-3.0315,-3.0408,-3.0337,-3.0467,-3.0397,-3.0437,-3.0454,-3.046,-3.047,-3.0392,-3.052,-3.0736,-3.076,-3.0479,-3.0476,-3.0474,0,-2.9539,-2.9692,-2.969,-2.9833,-2.9905,-2.9874,-2.9952,-2.9996,-3.0012,-3.0077,-3.0096,-3.0171,-3.0121,-3.0146,-3.0208,-3.0231,-3.0322,-3.0219,-3.0318,-3.0321,-3.0305,-3.0504,-3.0533,-3.0687,-3.0439,-3.0443,-3.0445,0,-2.9382,-2.9446,-2.9472,-2.9504,-2.9559,-2.962,-2.9709,-2.9781,-2.9825,-2.9877,-2.9953,-3.0058,-3.0025,-3.0067,-3.0064,-3.0128,-3.0261,-3.0084,-3.0086,-3.0117,-3.0422,-3.0449,-3.0475,-3.0245,-3.0249,-3.0252,-3.0418,0,-2.9183,-2.926,-2.9329,-2.9399,-2.9447,-2.9537,-2.9546,-2.9596,-2.9586,-2.9601,-2.9712,-2.9752,-2.9828,-2.986,-2.9852,-2.9995,-2.9973,-2.9937,-2.987,-2.9999,-3.0054,-3.0077,-2.9787,-2.9785,-2.9784,-2.9782,0,0,-2.8987,-2.9097,-2.909,-2.9175,-2.9215,-2.9181,-2.9276,-2.9312,-2.9385,-2.9415,-2.9377,-2.9532,-2.9566,-2.9701,-2.9742,-2.9773,-2.98,-2.9754,-2.9937,-2.9955,-2.9971,-3.0029,-3.0052,-2.9779,-2.9779,-2.9778,-2.9778,0,-2.8915,-2.8946,-2.9039,-2.9075,-2.9128,-2.9137,-2.916,-2.9207,-2.922,-2.9328,-2.93,-2.9369,-2.9492,-2.9532,-2.9569,-2.9738,-2.9714,-2.976,-2.9847,-2.9921,-2.994,-2.9957,-3.0019,-3.004,-2.9774,-2.9774,-2.9774,0,-2.8763,-2.8796,-2.8841,-2.8929,-2.8963,-2.9038,-2.8969,-2.9052,-2.9108,-2.9069,-2.9177,-2.9201,-2.9255,-2.9381,-2.9437,-2.9405,-2.9635,-2.9564,-2.9574,-2.9581,-2.9653,-2.9676,-2.9697,-2.9424,-2.9423,-2.9422,0,0,-2.8701,-2.8771,-2.8807,-2.8914,-2.8937,-2.8953,-2.8994,-2.8988,-2.9036,-2.9055,-2.9085,-2.9134,-2.9206,-2.9254,-2.9322,-2.9458,-2.947,-2.952,-2.9537,-2.955,-2.9564,-2.9639,-2.9662,-2.9417,-2.9417,-2.9417,0,0,-2.8671,-2.8715,-2.8696,-2.8821,-2.8866,-2.891,-2.8976,-2.8954,-2.9016,-2.9007,-2.9003,-2.9016,-2.9134,-2.9158,-2.9093,-2.9298,-2.9232,-2.9248,-2.9278,-2.9299,-2.9315,-2.9307,-2.9029,0,0,0,0,0,-2.8602,-2.8709,-2.8691,-2.8713,-2.8825,-2.8919,-2.8933,-2.8931,-2.8884,-2.8937,-2.8958,-2.8929,-2.9122,-2.9064,-2.9088,-2.9161,-2.9355,-2.9366,-2.9376,-2.9447,-2.9469,-2.9487,0,0,0,0,0,0,-2.861,-2.8637,-2.8689,-2.8736,-2.8761,-2.8915,-2.8834,-2.8837,-2.8878,-2.8871,-2.8925,-2.8931,-2.8932,-2.9052,-2.9073,-2.9143,-2.9022,-2.9359,-2.9369,-2.9377,-2.9455,-2.9472,-2.9488,0,0,0,0,0,-2.8617,-2.8639,-2.8817,-2.8734,-2.8756,-2.8779,-2.883,-2.8832,-2.8864,-2.8897,-2.8901,-2.8859,-2.8934,-2.8952,-2.9065,-2.9133,-2.9008,-2.9015,-2.9365,-2.9373,-2.9379,-2.9463,0,0,0,0,0,0,-2.8622,-2.8642,-2.8822,-2.8828,-2.8693,-2.877,-2.8782,-2.8827,-2.8887,-2.8892,-2.8829,-2.8823,-2.8937,-2.895,-2.8964,-2.913,-2.8996,-2.9004,-2.9009,-2.9371,-2.9377,-2.9382,0,0,0,0,0,0,-2.863,-2.8648,-2.8825,-2.8773,-2.8774,-2.8763,-2.8773,-2.8869,-2.8889,-2.8816,-2.8813,-2.8826,-2.8917,-2.895,-2.896,-2.911,-2.8987,-2.8994,-2.8999,-2.9003,-2.9376,-2.938,0,0,0,0,0,0,-2.8638,-2.8653,-2.8771,-2.8772,-2.8772,-2.8847,-2.8847,-2.8962,-2.8841,-2.8814,-2.8831,-2.8826,-2.8918,-2.8928,-2.8958,-2.9103,-2.9108,-2.8987,-2.8992,-2.8996,-2.8998,0,0,0,0,0,0,0,-2.8644,-2.8542,-2.8782,-2.8771,-2.8771,-2.889,-2.8892,-2.8894,-2.884,-2.8836,-2.8832,-2.8828,-2.8943,-2.8951,-2.896,-2.9098,0,0,-2.8986,-2.899,0,0,0,0,0,0,0,0,-2.8536,-2.8541,-2.8782,-2.8784,-2.8785,-2.889,-2.8892,-2.8893,-2.884,-2.8836,-2.8833,-2.883,-2.8945,-2.8952,-2.8959,0,0,0,0,0,0,0,0,0,0,0,0,0,0,0,-2.8782,-2.8784,0,-2.889,-2.8892,-2.8893,-2.8839,-2.8836,-2.8834,-2.8831,-2.8947,-2.8953,-2.8958,0,0,0,0,0,0,0,0,0,0,0,0,0,0,0,0,0,0,0,0,0,0,0,0,0,0,0,0,0,0,0,0,0,0,0,0,0,0,0,0,0,0,0,0,0,0,0,0,0,0,0,0,0,0,0,0,0,0,0,0,0,0,0,0,0,0,0,0,0]}],[{"header":{"parameterUnit":"kt","parameterCategory":2,"dx":1,"dy":1,"la1":30.253999710083008,"la2":30.299108505249023,"lo1":-89.0895004272461,"lo2":-89.04439544677734,"nx":28,"ny":28,"refTime":"2022-10-15T21:00:00:Z","depth":0,"parameterNumber":2,"parameterNumberName":"V-component_of_WINDS"},"data":[3.8267,3.832,3.8332,3.8397,3.8419,3.8465,3.8485,3.8511,3.8535,3.859,3.8623,3.8639,3.8666,3.8707,3.8742,3.8748,3.8761,3.8771,3.8776,3.8725,3.8718,3.8712,3.87,3.8774,3.8774,3.8827,3.8827,3.8828,3.8224,3.8246,3.8285,3.8331,3.8364,3.8361,3.8396,3.8423,3.8464,3.8494,3.8528,3.8577,3.8616,3.8641,3.868,3.8703,3.8703,3.8712,3.871,3.8714,3.866,3.8647,3.8711,3.8711,3.8711,3.8711,3.8711,3.8711,3.8149,3.8181,3.8217,3.8259,3.8285,3.8315,3.8347,3.8367,3.8405,3.8449,3.8456,3.8502,3.8533,3.8587,3.8607,3.8642,3.8634,3.8647,3.865,3.8653,3.8653,3.8572,3.865,3.8649,3.8649,3.8649,3.8649,0,3.8098,3.8106,3.8145,3.8187,3.8219,3.8253,3.8285,3.8305,3.8326,3.8356,3.84,3.8427,3.8479,3.852,3.856,3.8579,3.8578,3.858,3.8589,3.8585,3.8576,3.8579,3.8488,3.8577,3.8577,3.8576,3.8576,3.8576,3.8022,3.8059,3.8103,3.8128,3.8149,3.8191,3.8217,3.8233,3.826,3.8302,3.8328,3.8371,3.8406,3.8473,3.8495,3.8534,3.8533,3.8565,3.8539,3.8534,3.8531,3.8528,3.8531,3.857,3.8571,3.8571,3.8572,0,3.7977,3.7998,3.806,3.81,3.811,3.8148,3.8181,3.8213,3.823,3.8276,3.8287,3.8313,3.8355,3.8373,3.8425,3.8432,3.8489,3.8489,3.8477,3.8477,3.8506,3.8503,3.8602,3.8615,3.8541,3.8542,3.8542,0,3.792,3.7968,3.7996,3.8031,3.8084,3.81,3.8151,3.8171,3.82,3.8237,3.8241,3.8275,3.8292,3.8328,3.8339,3.8389,3.84,3.8407,3.8409,3.8406,3.8405,3.8419,3.8415,3.8416,3.8415,3.8415,3.8414,0,3.7847,3.792,3.7976,3.7996,3.8044,3.8069,3.809,3.8124,3.815,3.8186,3.8203,3.8244,3.8266,3.8297,3.8311,3.8292,3.8374,3.835,3.8381,3.8381,3.8397,3.8396,3.8481,3.8414,3.8414,3.8413,3.8413,0,3.7803,3.7843,3.7923,3.7962,3.798,3.8018,3.806,3.8096,3.8131,3.8142,3.817,3.8175,3.8222,3.8197,3.8261,3.8232,3.8253,3.8266,3.8268,3.8272,3.8244,3.8287,3.8369,3.8377,3.8277,3.8276,3.8275,0,3.7712,3.78,3.7815,3.789,3.7933,3.7934,3.7976,3.8008,3.8025,3.8062,3.808,3.8123,3.8109,3.8124,3.8154,3.8174,3.8212,3.817,3.8219,3.822,3.8208,3.8283,3.829,3.8349,3.8261,3.8262,3.8263,0,3.7645,3.7705,3.7718,3.7741,3.7788,3.7824,3.7872,3.7919,3.7942,3.7979,3.8018,3.8079,3.807,3.8096,3.8104,3.8134,3.8186,3.8121,3.8122,3.813,3.8256,3.8262,3.8272,3.8185,3.8187,3.8188,3.8252,0,3.7571,3.7619,3.7655,3.7707,3.7739,3.7788,3.7809,3.7839,3.7844,3.7861,3.7921,3.7952,3.7999,3.8016,3.8021,3.8085,3.8077,3.8067,3.8044,3.8094,3.8115,3.8124,3.801,3.8009,3.8009,3.8008,0,0,3.7477,3.7547,3.7563,3.7612,3.7639,3.7641,3.7691,3.7718,3.7771,3.7789,3.7777,3.7867,3.7894,3.7963,3.798,3.8,3.8012,3.7995,3.807,3.8077,3.8083,3.8106,3.8115,3.8008,3.8007,3.8007,3.8007,0,3.7455,3.7486,3.7537,3.7565,3.7609,3.7626,3.7638,3.7681,3.7694,3.7754,3.7753,3.7791,3.7865,3.7892,3.7915,3.7987,3.7983,3.8,3.8031,3.8065,3.8072,3.8079,3.8102,3.8111,3.8006,3.8006,3.8006,0,3.7391,3.7424,3.7451,3.7516,3.7544,3.7589,3.757,3.7619,3.7651,3.765,3.7709,3.7729,3.7768,3.7832,3.7862,3.7851,3.7956,3.7927,3.7931,3.7934,3.7968,3.7977,3.7985,3.7879,3.7879,3.7878,0,0,3.7368,3.7414,3.7454,3.7513,3.7531,3.7557,3.7584,3.7592,3.7628,3.7643,3.7669,3.7703,3.7746,3.7773,3.7814,3.7882,3.789,3.7911,3.7917,3.7922,3.7927,3.7962,3.7971,3.7876,3.7876,3.7876,0,0,3.7357,3.7407,3.7406,3.7478,3.7513,3.7556,3.759,3.759,3.763,3.7626,3.7641,3.7651,3.7712,3.7732,3.7703,3.7806,3.7782,3.779,3.779,3.7798,3.7804,3.7797,3.7687,0,0,0,0,0,3.7346,3.7401,3.74,3.7415,3.7497,3.7556,3.7567,3.7581,3.7564,3.759,3.7612,3.7608,3.7719,3.7694,3.7708,3.7739,3.785,3.7855,3.7859,3.7876,3.7884,3.7891,0,0,0,0,0,0,3.7352,3.7371,3.7398,3.7443,3.7462,3.7555,3.7528,3.7534,3.7561,3.756,3.7604,3.7609,3.7622,3.7687,3.77,3.773,3.7682,3.7852,3.7856,3.786,3.7879,3.7886,3.7891,0,0,0,0,0,3.7357,3.7372,3.75,3.7443,3.7459,3.7491,3.7526,3.7531,3.7552,3.7587,3.7592,3.7561,3.7622,3.7634,3.7695,3.7724,3.7674,3.7678,3.7855,3.7858,3.7861,3.7882,0,0,0,0,0,0,3.7361,3.7376,3.7504,3.7509,3.7424,3.7486,3.7497,3.7528,3.7578,3.7584,3.7545,3.7543,3.7623,3.7632,3.7641,3.7721,3.7667,3.7672,3.7674,3.7857,3.7859,3.7862,0,0,0,0,0,0,3.7368,3.7381,3.7507,3.7482,3.7484,3.7482,3.7491,3.7545,3.7578,3.7533,3.7533,3.7543,3.7609,3.7631,3.7638,3.7722,3.7662,3.7666,3.7669,3.7671,3.7859,3.7861,0,0,0,0,0,0,3.7374,3.7384,3.748,3.7483,3.7485,3.7546,3.753,3.7612,3.7559,3.753,3.7554,3.7552,3.7609,3.7616,3.7636,3.7717,3.7721,3.7662,3.7665,3.7667,3.7668,0,0,0,0,0,0,0,3.7378,3.7302,3.7472,3.7483,3.7485,3.7559,3.756,3.7562,3.7558,3.7556,3.7555,3.7553,3.7636,3.7641,3.7646,3.7713,0,0,3.7661,3.7663,0,0,0,0,0,0,0,0,3.7298,3.7301,3.7472,3.7473,3.7475,3.7559,3.756,3.7561,3.7558,3.7556,3.7555,3.7554,3.7637,3.7641,3.7645,0,0,0,0,0,0,0,0,0,0,0,0,0,0,0,3.7472,3.7473,0,3.7559,3.756,3.7561,3.7558,3.7556,3.7555,3.7554,3.7638,3.7642,3.7645,0,0,0,0,0,0,0,0,0,0,0,0,0,0,0,0,0,0,0,0,0,0,0,0,0,0,0,0,0,0,0,0,0,0,0,0,0,0,0,0,0,0,0,0,0,0,0,0,0,0,0,0,0,0,0,0,0,0,0,0,0,0,0,0,0,0,0,0,0]}]]]